Location: Sebastopol
(38.4021°N, 122.8239°W)
Time: 15:25:33
(UTC+00:00)

ERS-2 - Pass Details

Date: 29 October 2020
Orbit: 493 x 497 km, 98.6° (Epoch: 30 November)

Event Time Altitude Azimuth Distance (km) Brightness Sun altitude
Rises 13:37:34 0° 198° (SSW) 2,564 5.6 -11.8°
Reaches altitude 10° 13:40:05 10° 217° (SW) 1,687 4.5 -11.4°
Maximum altitude 13:42:43 19° 264° (W) 1,226 3.5 -10.8°
Enters shadow 13:44:50 13° 304° (NW) 1,537 4.0 -10.4°
